Time,TemperatureF,DewpointF,PressureIn,WindDirection,WindDirectionDegrees,WindSpeedMPH,WindSpeedGustMPH,Humidity,HourlyPrecipIn,Conditions,Clouds,dailyrainin,SoftwareType,DateUTC
2013-04-10 00:00:00,47.6,46.2,29.94,North,11,4.0,4.0,95,0.00,,,1.15,Wunderground v.1.15,2013-04-10 04:00:00,
2013-04-10 00:05:00,47.5,46.1,29.94,NE,49,3.0,4.0,95,0.00,,,0.00,Wunderground v.1.15,2013-04-10 04:05:00,
2013-04-10 00:10:00,47.3,45.9,29.94,NNW,329,3.0,3.0,95,0.00,,,0.00,Wunderground v.1.15,2013-04-10 04:10:00,
2013-04-10 00:15:00,47.2,46.1,29.93,NE,51,2.0,4.0,96,0.00,,,0.00,Wunderground v.1.15,2013-04-10 04:15:00,
2013-04-10 00:20:00,46.9,45.5,29.92,North,350,3.0,3.0,95,0.00,,,0.00,Wunderground v.1.15,2013-04-10 04:20:00,
2013-04-10 00:25:00,46.7,45.3,29.92,NNW,328,4.0,4.0,95,0.00,,,0.00,Wunderground v.1.15,2013-04-10 04:25:00,
2013-04-10 00:30:00,46.5,45.1,29.92,NNE,18,4.0,4.0,95,0.00,,,0.00,Wunderground v.1.15,2013-04-10 04:30:00,
2013-04-10 00:36:00,46.3,44.9,29.93,NNE,13,4.0,4.0,95,0.00,,,0.00,Wunderground v.1.15,2013-04-10 04:36:00,
2013-04-10 00:40:00,46.1,44.7,29.93,NE,39,4.0,4.0,95,0.00,,,0.00,Wunderground v.1.15,2013-04-10 04:40:00,
2013-04-10 00:50:00,46.0,44.9,29.93,ENE,77,3.0,3.0,96,0.00,,,0.00,Wunderground v.1.15,2013-04-10 04:50:00,
2013-04-10 00:55:00,46.0,44.9,29.93,NNE,32,2.0,3.0,96,0.00,,,0.01,Wunderground v.1.15,2013-04-10 04:55:00,
2013-04-10 01:00:00,45.9,44.8,29.94,NW,324,2.0,2.0,96,0.00,,,0.01,Wunderground v.1.15,2013-04-10 05:00:00,
2013-04-10 01:10:00,45.8,44.7,29.96,NW,314,2.0,2.0,96,0.00,,,0.01,Wunderground v.1.15,2013-04-10 05:10:00,
2013-04-10 01:20:00,45.8,44.7,29.96,NE,42,3.0,3.0,96,0.00,,,0.01,Wunderground v.1.15,2013-04-10 05:20:00,
2013-04-10 01:25:00,45.8,44.7,29.95,ENE,75,2.0,3.0,96,0.00,,,0.02,Wunderground v.1.15,2013-04-10 05:25:00,
2013-04-10 01:35:00,45.8,44.7,29.95,NE,56,1.0,4.0,96,0.00,,,0.02,Wunderground v.1.15,2013-04-10 05:35:00,
2013-04-10 01:40:00,45.7,44.6,29.96,ENE,72,1.0,3.0,96,0.00,,,0.02,Wunderground v.1.15,2013-04-10 05:40:00,
2013-04-10 01:50:00,45.7,44.6,29.96,North,5,2.0,2.0,96,0.00,,,0.02,Wunderground v.1.15,2013-04-10 05:50:00,
2013-04-10 02:01:00,45.7,44.6,29.96,East,82,3.0,3.0,96,0.00,,,0.02,Wunderground v.1.15,2013-04-10 06:01:00,
2013-04-10 02:10:00,45.8,44.7,29.96,East,80,2.0,2.0,96,0.00,,,0.02,Wunderground v.1.15,2013-04-10 06:10:00,
2013-04-10 02:15:00,45.8,44.7,29.97,North,354,2.0,2.0,96,0.00,,,0.02,Wunderground v.1.15,2013-04-10 06:15:00,
2013-04-10 02:20:00,45.8,44.7,29.97,ENE,65,1.0,3.0,96,0.00,,,0.02,Wunderground v.1.15,2013-04-10 06:20:00,
2013-04-10 02:30:00,45.9,44.8,29.96,ENE,72,1.0,3.0,96,0.00,,,0.02,Wunderground v.1.15,2013-04-10 06:30:00,
2013-04-10 02:35:00,45.9,44.8,29.96,NNE,23,1.0,3.0,96,0.00,,,0.02,Wunderground v.1.15,2013-04-10 06:35:00,
2013-04-10 02:40:00,45.9,44.8,29.95,East,79,2.0,2.0,96,0.00,,,0.02,Wunderground v.1.15,2013-04-10 06:40:00,
2013-04-10 02:45:00,45.9,44.8,29.95,NNE,30,1.0,2.0,96,0.00,,,0.02,Wunderground v.1.15,2013-04-10 06:45:00,
2013-04-10 02:50:00,45.9,44.8,29.96,East,82,1.0,1.0,96,0.00,,,0.03,Wunderground v.1.15,2013-04-10 06:50:00,
2013-04-10 02:55:00,45.9,44.8,29.96,NNE,25,1.0,1.0,96,0.00,,,0.03,Wunderground v.1.15,2013-04-10 06:55:00,
2013-04-10 03:05:00,45.9,44.8,29.96,East,80,1.0,1.0,96,0.05,,,0.04,Wunderground v.1.15,2013-04-10 07:05:00,
2013-04-10 03:10:00,45.9,44.8,29.95,NNE,29,1.0,2.0,96,0.05,,,0.04,Wunderground v.1.15,2013-04-10 07:10:00,
2013-04-10 03:15:00,45.9,44.8,29.95,ENE,68,1.0,2.0,96,0.04,,,0.04,Wunderground v.1.15,2013-04-10 07:15:00,
2013-04-10 03:25:00,45.9,44.8,29.95,East,101,1.0,1.0,96,0.00,,,0.04,Wunderground v.1.15,2013-04-10 07:25:00,
2013-04-10 03:30:00,45.9,44.8,29.95,ESE,109,0.0,0.0,96,0.00,,,0.04,Wunderground v.1.15,2013-04-10 07:30:00,
2013-04-10 03:35:00,45.9,44.8,29.96,NE,47,0.0,1.0,96,0.00,,,0.04,Wunderground v.1.15,2013-04-10 07:35:00,
2013-04-10 03:40:00,45.9,44.8,29.96,ENE,72,1.0,1.0,96,0.00,,,0.04,Wunderground v.1.15,2013-04-10 07:40:00,
2013-04-10 03:45:00,46.0,44.9,29.96,NE,44,1.0,1.0,96,0.00,,,0.05,Wunderground v.1.15,2013-04-10 07:45:00,
2013-04-10 03:55:00,46.0,44.9,29.97,NNE,27,0.0,1.0,96,0.00,,,0.05,Wunderground v.1.15,2013-04-10 07:55:00,
2013-04-10 04:00:00,46.0,44.9,29.97,NNE,32,1.0,1.0,96,0.00,,,0.05,Wunderground v.1.15,2013-04-10 08:00:00,
2013-04-10 04:10:00,46.0,44.9,29.96,NNE,27,1.0,1.0,96,0.00,,,0.05,Wunderground v.1.15,2013-04-10 08:10:00,
2013-04-10 04:15:00,46.0,44.9,29.97,NNE,28,1.0,1.0,96,0.00,,,0.05,Wunderground v.1.15,2013-04-10 08:15:00,
2013-04-10 04:20:00,46.1,45.0,29.97,NNE,33,1.0,2.0,96,0.00,,,0.05,Wunderground v.1.15,2013-04-10 08:20:00,
2013-04-10 04:30:00,46.0,44.9,29.96,ENE,70,0.0,0.0,96,0.00,,,0.05,Wunderground v.1.15,2013-04-10 08:30:00,
2013-04-10 04:40:00,46.1,45.0,29.96,NE,44,0.0,1.0,96,0.00,,,0.05,Wunderground v.1.15,2013-04-10 08:40:00,
2013-04-10 04:45:00,46.0,44.9,29.96,NNE,17,1.0,1.0,96,0.00,,,0.05,Wunderground v.1.15,2013-04-10 08:45:00,
2013-04-10 04:50:00,46.0,44.9,29.96,NNE,27,1.0,1.0,96,0.00,,,0.05,Wunderground v.1.15,2013-04-10 08:50:00,
2013-04-10 05:00:00,45.9,44.8,29.95,NE,35,2.0,2.0,96,0.00,,,0.05,Wunderground v.1.15,2013-04-10 09:00:00,
2013-04-10 05:10:00,45.8,44.7,29.96,NNE,33,1.0,1.0,96,0.00,,,0.05,Wunderground v.1.15,2013-04-10 09:10:00,
2013-04-10 05:20:00,45.8,44.7,29.96,NNE,12,2.0,2.0,96,0.00,,,0.05,Wunderground v.1.15,2013-04-10 09:20:00,
2013-04-10 05:30:00,45.8,44.7,29.98,NE,55,2.0,2.0,96,0.00,,,0.05,Wunderground v.1.15,2013-04-10 09:30:00,
2013-04-10 05:40:00,45.6,44.5,29.97,WNW,302,2.0,2.0,96,0.00,,,0.05,Wunderground v.1.15,2013-04-10 09:40:00,
2013-04-10 05:50:00,45.5,44.4,29.96,NNE,16,2.0,4.0,96,0.00,,,0.05,Wunderground v.1.15,2013-04-10 09:50:00,
2013-04-10 06:00:00,45.3,44.2,29.94,NE,56,2.0,2.0,96,0.00,,,0.05,Wunderground v.1.15,2013-04-10 10:00:00,
2013-04-10 06:10:00,45.3,44.2,29.95,NE,53,1.0,1.0,96,0.00,,,0.05,Wunderground v.1.15,2013-04-10 10:10:00,
2013-04-10 06:20:00,45.2,44.1,29.97,NNE,32,2.0,2.0,96,0.00,,,0.05,Wunderground v.1.15,2013-04-10 10:20:00,
2013-04-10 06:25:00,45.2,44.4,29.98,East,83,2.0,2.0,97,0.00,,,0.05,Wunderground v.1.15,2013-04-10 10:25:00,
2013-04-10 06:35:00,45.0,44.2,29.99,NNW,338,2.0,4.0,97,0.00,,,0.05,Wunderground v.1.15,2013-04-10 10:35:00,
2013-04-10 06:40:00,44.9,43.8,29.99,North,8,3.0,3.0,96,0.00,,,0.05,Wunderground v.1.15,2013-04-10 10:40:00,
2013-04-10 06:45:00,44.8,43.7,29.98,NNE,26,3.0,4.0,96,0.00,,,0.05,Wunderground v.1.15,2013-04-10 10:45:00,
2013-04-10 06:55:00,44.6,43.8,29.99,NE,53,2.0,2.0,97,0.00,,,0.05,Wunderground v.1.15,2013-04-10 10:55:00,
2013-04-10 07:05:00,44.4,43.6,29.99,ENE,59,3.0,3.0,97,0.00,,,0.05,Wunderground v.1.15,2013-04-10 11:05:00,
2013-04-10 07:10:00,44.4,43.6,29.98,NNE,28,2.0,2.0,97,0.00,,,0.05,Wunderground v.1.15,2013-04-10 11:10:00,
2013-04-10 07:20:00,44.3,43.5,29.97,NNE,15,3.0,3.0,97,0.00,,,0.05,Wunderground v.1.15,2013-04-10 11:20:00,
2013-04-10 07:25:00,44.3,43.5,29.97,NNE,30,3.0,3.0,97,0.00,,,0.05,Wunderground v.1.15,2013-04-10 11:25:00,
2013-04-10 07:35:00,44.3,43.5,29.98,NNW,345,2.0,5.0,97,0.00,,,0.05,Wunderground v.1.15,2013-04-10 11:35:00,
2013-04-10 07:40:00,44.1,43.3,29.98,NNE,30,3.0,3.0,97,0.00,,,0.05,Wunderground v.1.15,2013-04-10 11:40:00,
2013-04-10 07:50:00,44.0,43.2,29.98,NE,41,3.0,4.0,97,0.00,,,0.05,Wunderground v.1.15,2013-04-10 11:50:00,
2013-04-10 08:00:00,44.0,43.2,29.99,NNE,23,3.0,6.0,97,0.00,,,0.05,Wunderground v.1.15,2013-04-10 12:00:00,
2013-04-10 08:10:00,44.0,43.2,29.98,ENE,72,2.0,2.0,97,0.00,,,0.05,Wunderground v.1.15,2013-04-10 12:10:00,
2013-04-10 08:15:00,44.0,43.2,29.98,East,80,2.0,5.0,97,0.00,,,0.05,Wunderground v.1.15,2013-04-10 12:15:00,
2013-04-10 08:25:00,44.0,43.2,29.99,ENE,59,3.0,4.0,97,0.00,,,0.05,Wunderground v.1.15,2013-04-10 12:25:00,
2013-04-10 08:30:00,44.0,43.2,29.99,NNW,329,3.0,3.0,97,0.00,,,0.05,Wunderground v.1.15,2013-04-10 12:30:00,
2013-04-10 08:35:00,44.1,43.3,29.99,NNE,15,3.0,3.0,97,0.00,,,0.05,Wunderground v.1.15,2013-04-10 12:35:00,
2013-04-10 08:45:00,44.0,43.2,29.99,NNW,338,4.0,4.0,97,0.00,,,0.05,Wunderground v.1.15,2013-04-10 12:45:00,
2013-04-10 08:55:00,44.1,43.3,29.98,ENE,75,2.0,3.0,97,0.00,,,0.05,Wunderground v.1.15,2013-04-10 12:55:00,
2013-04-10 09:05:00,44.3,43.5,29.99,ENE,63,2.0,4.0,97,0.00,,,0.05,Wunderground v.1.15,2013-04-10 13:05:00,
2013-04-10 09:15:00,44.5,43.7,29.98,ENE,60,3.0,3.0,97,0.00,,,0.05,Wunderground v.1.15,2013-04-10 13:15:00,
2013-04-10 09:20:00,44.6,43.8,29.99,NE,52,3.0,3.0,97,0.00,,,0.05,Wunderground v.1.15,2013-04-10 13:20:00,
2013-04-10 09:30:00,44.7,43.9,29.98,NNE,16,3.0,3.0,97,0.00,,,0.05,Wunderground v.1.15,2013-04-10 13:30:00,
2013-04-10 09:35:00,44.7,43.9,29.98,North,10,3.0,3.0,97,0.00,,,0.05,Wunderground v.1.15,2013-04-10 13:35:00,
2013-04-10 09:45:00,44.7,43.9,29.99,SSE,163,2.0,2.0,97,0.00,,,0.05,Wunderground v.1.15,2013-04-10 13:45:00,
2013-04-10 09:55:00,44.7,43.9,29.98,NE,47,2.0,6.0,97,0.00,,,0.05,Wunderground v.1.15,2013-04-10 13:55:00,
2013-04-10 10:05:00,44.7,43.9,30.02,NNE,32,1.0,2.0,97,0.00,,,0.05,Wunderground v.1.15,2013-04-10 14:05:00,
2013-04-10 10:10:00,44.8,44.0,30.01,NNE,25,1.0,2.0,97,0.22,,,0.07,Wunderground v.1.15,2013-04-10 14:10:00,
2013-04-10 10:20:00,44.7,43.9,29.99,North,3,3.0,3.0,97,0.24,,,0.15,Wunderground v.1.15,2013-04-10 14:20:00,
2013-04-10 10:30:00,44.5,43.7,29.99,NE,34,2.0,2.0,97,0.19,,,0.18,Wunderground v.1.15,2013-04-10 14:30:00,
2013-04-10 10:35:00,44.4,43.6,29.99,NE,54,3.0,3.0,97,0.32,,,0.20,Wunderground v.1.15,2013-04-10 14:35:00,
2013-04-10 10:40:00,44.3,43.5,29.96,NE,54,3.0,3.0,97,0.43,,,0.24,Wunderground v.1.15,2013-04-10 14:40:00,
2013-04-10 10:50:00,44.1,43.3,29.95,NNE,32,3.0,4.0,97,0.11,,,0.27,Wunderground v.1.15,2013-04-10 14:50:00,
2013-04-10 11:00:00,44.1,43.3,29.99,NNE,20,3.0,3.0,97,0.05,,,0.27,Wunderground v.1.15,2013-04-10 15:00:00,
2013-04-10 11:10:00,44.1,43.3,30.01,NNE,27,3.0,3.0,97,0.00,,,0.27,Wunderground v.1.15,2013-04-10 15:10:00,
2013-04-10 11:15:00,44.0,43.2,30.02,North,354,3.0,3.0,97,0.00,,,0.27,Wunderground v.1.15,2013-04-10 15:15:00,
2013-04-10 11:25:00,43.8,42.7,29.95,SE,131,3.0,3.0,96,0.81,,,0.33,Wunderground v.1.15,2013-04-10 15:25:00,
2013-04-10 11:30:00,43.7,42.6,29.99,ENE,72,3.0,3.0,96,0.27,,,0.36,Wunderground v.1.15,2013-04-10 15:30:00,
2013-04-10 11:35:00,43.7,42.6,29.97,ENE,70,2.0,3.0,96,0.10,,,0.36,Wunderground v.1.15,2013-04-10 15:35:00,
2013-04-10 11:45:00,43.7,42.6,29.96,East,99,3.0,3.0,96,0.06,,,0.37,Wunderground v.1.15,2013-04-10 15:45:00,
2013-04-10 11:50:00,43.9,43.1,29.95,ESE,103,3.0,4.0,97,0.05,,,0.37,Wunderground v.1.15,2013-04-10 15:50:00,
2013-04-10 12:00:00,44.1,43.0,29.97,ENE,63,4.0,4.0,96,0.00,,,0.37,Wunderground v.1.15,2013-04-10 16:00:00,
2013-04-10 12:05:00,44.1,43.0,29.95,East,87,3.0,4.0,96,0.00,,,0.37,Wunderground v.1.15,2013-04-10 16:05:00,
2013-04-10 12:10:00,44.1,43.0,29.95,NNE,18,3.0,3.0,96,0.00,,,0.37,Wunderground v.1.15,2013-04-10 16:10:00,
2013-04-10 12:20:00,44.2,43.1,29.95,ESE,110,3.0,3.0,96,0.00,,,0.37,Wunderground v.1.15,2013-04-10 16:20:00,
2013-04-10 12:25:00,44.4,43.3,29.94,ESE,108,3.0,3.0,96,0.00,,,0.37,Wunderground v.1.15,2013-04-10 16:25:00,
2013-04-10 12:30:00,44.5,43.2,29.94,North,10,3.0,3.0,95,0.00,,,0.37,Wunderground v.1.15,2013-04-10 16:30:00,
2013-04-10 12:35:00,44.9,43.6,29.94,ENE,72,3.0,3.0,95,0.00,,,0.37,Wunderground v.1.15,2013-04-10 16:35:00,
2013-04-10 12:45:00,45.2,43.9,29.95,East,89,2.0,2.0,95,0.00,,,0.37,Wunderground v.1.15,2013-04-10 16:45:00,
2013-04-10 12:55:00,45.2,43.6,29.94,NNW,341,3.0,3.0,94,0.00,,,0.37,Wunderground v.1.15,2013-04-10 16:55:00,
2013-04-10 13:05:00,45.5,43.9,29.92,ESE,116,3.0,5.0,94,0.00,,,0.37,Wunderground v.1.15,2013-04-10 17:05:00,
2013-04-10 13:10:00,45.7,44.1,29.92,ENE,70,3.0,3.0,94,0.00,,,0.37,Wunderground v.1.15,2013-04-10 17:10:00,
2013-04-10 13:20:00,45.6,43.7,29.92,ENE,60,3.0,4.0,93,0.00,,,0.37,Wunderground v.1.15,2013-04-10 17:20:00,
2013-04-10 13:25:00,45.7,43.8,29.92,NE,54,3.0,4.0,93,0.00,,,0.37,Wunderground v.1.15,2013-04-10 17:25:00,
2013-04-10 13:35:00,45.7,43.8,29.91,East,85,3.0,3.0,93,0.00,,,0.37,Wunderground v.1.15,2013-04-10 17:35:00,
2013-04-10 13:40:00,45.8,43.6,29.91,ESE,105,3.0,3.0,92,0.00,,,0.37,Wunderground v.1.15,2013-04-10 17:40:00,
2013-04-10 13:50:00,45.9,43.7,29.91,ENE,61,3.0,3.0,92,0.00,,,0.37,Wunderground v.1.15,2013-04-10 17:50:00,
2013-04-10 13:55:00,45.9,43.7,29.91,ENE,69,3.0,3.0,92,0.00,,,0.37,Wunderground v.1.15,2013-04-10 17:55:00,
2013-04-10 14:01:00,45.8,43.6,29.91,NNE,23,3.0,5.0,92,0.00,,,0.37,Wunderground v.1.15,2013-04-10 18:01:00,
2013-04-10 14:10:00,45.5,43.6,29.91,NE,37,3.0,3.0,93,0.00,,,0.37,Wunderground v.1.15,2013-04-10 18:10:00,
2013-04-10 14:15:00,45.4,43.5,29.90,East,86,2.0,3.0,93,0.00,,,0.37,Wunderground v.1.15,2013-04-10 18:15:00,
2013-04-10 14:25:00,44.9,43.0,29.89,North,8,3.0,7.0,93,0.00,,,0.37,Wunderground v.1.15,2013-04-10 18:25:00,
2013-04-10 14:35:00,44.1,42.5,29.90,NE,41,4.0,6.0,94,0.00,,,0.37,Wunderground v.1.15,2013-04-10 18:35:00,
2013-04-10 14:40:00,43.8,42.2,29.90,ENE,62,4.0,4.0,94,0.00,,,0.37,Wunderground v.1.15,2013-04-10 18:40:00,
2013-04-10 14:50:00,43.5,41.9,29.88,North,353,4.0,5.0,94,0.26,,,0.39,Wunderground v.1.15,2013-04-10 18:50:00,
2013-04-10 15:00:00,43.1,41.8,29.88,ENE,74,4.0,4.0,95,0.10,,,0.41,Wunderground v.1.15,2013-04-10 19:00:00,
2013-04-10 15:05:00,43.1,41.8,29.88,ENE,65,3.0,4.0,95,0.06,,,0.41,Wunderground v.1.15,2013-04-10 19:05:00,
2013-04-10 15:10:00,43.1,41.8,29.87,North,353,4.0,10.0,95,0.04,,,0.41,Wunderground v.1.15,2013-04-10 19:10:00,
2013-04-10 15:15:00,42.7,41.4,29.86,NE,43,4.0,10.0,95,0.00,,,0.41,Wunderground v.1.15,2013-04-10 19:15:00,
2013-04-10 15:20:00,42.5,41.2,29.86,NE,42,5.0,5.0,95,0.00,,,0.42,Wunderground v.1.15,2013-04-10 19:20:00,
2013-04-10 15:30:00,42.3,41.0,29.98,NNW,347,4.0,4.0,95,0.86,,,0.61,Wunderground v.1.15,2013-04-10 19:30:00,
2013-04-10 15:40:00,41.7,40.4,29.92,NE,40,5.0,6.0,95,0.16,,,0.66,Wunderground v.1.15,2013-04-10 19:40:00,
2013-04-10 15:45:00,41.5,40.2,29.91,NE,34,4.0,6.0,95,0.18,,,0.67,Wunderground v.1.15,2013-04-10 19:45:00,
2013-04-10 15:55:00,41.2,39.9,29.85,NE,39,4.0,4.0,95,0.16,,,0.70,Wunderground v.1.15,2013-04-10 19:55:00,
2013-04-10 16:00:00,41.1,39.8,29.84,ENE,58,5.0,5.0,95,0.09,,,0.70,Wunderground v.1.15,2013-04-10 20:00:00,
2013-04-10 16:05:00,41.0,39.7,29.85,NE,55,4.0,8.0,95,0.05,,,0.70,Wunderground v.1.15,2013-04-10 20:05:00,
2013-04-10 16:10:00,40.9,39.6,29.85,ENE,70,4.0,5.0,95,0.04,,,0.70,Wunderground v.1.15,2013-04-10 20:10:00,
2013-04-10 16:20:00,41.3,40.2,29.87,NE,44,3.0,6.0,96,0.00,,,0.70,Wunderground v.1.15,2013-04-10 20:20:00,
2013-04-10 16:30:00,41.4,40.1,29.89,NW,325,3.0,7.0,95,0.00,,,0.70,Wunderground v.1.15,2013-04-10 20:30:00,
2013-04-10 16:35:00,41.4,40.1,29.90,East,89,3.0,7.0,95,0.00,,,0.70,Wunderground v.1.15,2013-04-10 20:35:00,
2013-04-10 16:40:00,41.4,40.1,29.90,SE,128,3.0,3.0,95,0.00,,,0.70,Wunderground v.1.15,2013-04-10 20:40:00,
2013-04-10 16:50:00,41.5,40.2,29.91,ENE,65,3.0,3.0,95,0.00,,,0.70,Wunderground v.1.15,2013-04-10 20:50:00,
2013-04-10 17:00:00,41.5,40.2,29.90,NNE,25,3.0,4.0,95,0.00,,,0.70,Wunderground v.1.15,2013-04-10 21:00:00,
2013-04-10 17:10:00,41.5,40.2,29.90,North,1,4.0,4.0,95,0.00,,,0.70,Wunderground v.1.15,2013-04-10 21:10:00,
2013-04-10 17:15:00,41.5,39.9,29.90,NNE,19,4.0,6.0,94,0.00,,,0.70,Wunderground v.1.15,2013-04-10 21:15:00,
2013-04-10 17:20:00,41.5,40.2,29.89,NE,40,4.0,5.0,95,0.00,,,0.70,Wunderground v.1.15,2013-04-10 21:20:00,
2013-04-10 17:30:00,41.4,39.8,29.90,ENE,70,4.0,4.0,94,0.00,,,0.70,Wunderground v.1.15,2013-04-10 21:30:00,
2013-04-10 17:35:00,41.3,39.7,29.91,NNW,341,5.0,5.0,94,0.00,,,0.70,Wunderground v.1.15,2013-04-10 21:35:00,
2013-04-10 17:40:00,41.4,39.8,29.92,NE,49,4.0,4.0,94,0.00,,,0.70,Wunderground v.1.15,2013-04-10 21:40:00,
2013-04-10 17:45:00,41.4,39.8,29.92,NNW,343,3.0,4.0,94,0.00,,,0.70,Wunderground v.1.15,2013-04-10 21:45:00,
2013-04-10 17:55:00,41.2,39.6,29.93,North,8,4.0,7.0,94,0.00,,,0.70,Wunderground v.1.15,2013-04-10 21:55:00,
2013-04-10 18:05:00,41.1,39.5,29.94,ENE,72,5.0,7.0,94,0.00,,,0.70,Wunderground v.1.15,2013-04-10 22:05:00,
2013-04-10 18:10:00,41.0,39.4,29.95,North,11,4.0,5.0,94,0.00,,,0.70,Wunderground v.1.15,2013-04-10 22:10:00,
2013-04-10 18:15:00,40.9,39.3,29.95,NNW,335,6.0,6.0,94,0.00,,,0.70,Wunderground v.1.15,2013-04-10 22:15:00,
2013-04-10 18:25:00,40.8,39.2,29.97,NNE,13,4.0,6.0,94,0.00,,,0.70,Wunderground v.1.15,2013-04-10 22:25:00,
2013-04-10 18:35:00,40.7,39.4,29.97,NE,35,4.0,4.0,95,0.00,,,0.70,Wunderground v.1.15,2013-04-10 22:35:00,
2013-04-10 18:40:00,40.7,39.4,29.96,NE,37,4.0,6.0,95,0.00,,,0.70,Wunderground v.1.15,2013-04-10 22:40:00,
2013-04-10 18:50:00,40.5,39.2,29.94,ENE,58,5.0,5.0,95,0.00,,,0.70,Wunderground v.1.15,2013-04-10 22:50:00,
2013-04-10 18:55:00,40.5,39.2,29.93,NE,56,5.0,5.0,95,0.00,,,0.71,Wunderground v.1.15,2013-04-10 22:55:00,
2013-04-10 19:05:00,40.4,39.1,29.93,SE,134,4.0,5.0,95,0.00,,,0.71,Wunderground v.1.15,2013-04-10 23:05:00,
2013-04-10 19:10:00,40.4,39.1,29.93,NNE,27,4.0,4.0,95,0.00,,,0.71,Wunderground v.1.15,2013-04-10 23:10:00,
2013-04-10 19:20:00,40.4,39.1,29.95,North,354,5.0,5.0,95,0.00,,,0.71,Wunderground v.1.15,2013-04-10 23:20:00,
2013-04-10 19:30:00,40.5,39.2,29.96,North,359,4.0,4.0,95,0.00,,,0.71,Wunderground v.1.15,2013-04-10 23:30:00,
2013-04-10 19:40:00,40.3,39.0,29.96,NNE,30,5.0,5.0,95,0.00,,,0.71,Wunderground v.1.15,2013-04-10 23:40:00,
2013-04-10 19:50:00,40.3,39.0,29.96,East,84,5.0,5.0,95,0.00,,,0.71,Wunderground v.1.15,2013-04-10 23:50:00,
2013-04-10 19:55:00,40.3,39.0,29.96,ENE,71,5.0,5.0,95,0.00,,,0.71,Wunderground v.1.15,2013-04-10 23:55:00,
2013-04-10 20:00:00,40.2,38.9,29.96,NE,50,4.0,4.0,95,0.00,,,0.71,Wunderground v.1.15,2013-04-11 00:00:00,
2013-04-10 20:10:00,40.2,38.9,29.96,NE,46,3.0,4.0,95,0.00,,,0.71,Wunderground v.1.15,2013-04-11 00:10:00,
2013-04-10 20:20:00,40.0,38.7,29.95,NNE,23,3.0,6.0,95,0.00,,,0.71,Wunderground v.1.15,2013-04-11 00:20:00,
2013-04-10 20:30:00,39.9,38.6,29.98,NW,320,4.0,4.0,95,0.00,,,0.71,Wunderground v.1.15,2013-04-11 00:30:00,
2013-04-10 20:35:00,39.9,38.6,29.98,NNW,345,3.0,4.0,95,0.00,,,0.71,Wunderground v.1.15,2013-04-11 00:35:00,
2013-04-10 20:45:00,39.7,38.4,30.00,NE,56,4.0,4.0,95,0.00,,,0.71,Wunderground v.1.15,2013-04-11 00:45:00,
2013-04-10 20:55:00,39.7,38.1,30.01,NNE,17,3.0,4.0,94,0.00,,,0.71,Wunderground v.1.15,2013-04-11 00:55:00,
2013-04-10 21:05:00,39.7,38.1,30.02,NE,54,2.0,4.0,94,0.00,,,0.71,Wunderground v.1.15,2013-04-11 01:05:00,
2013-04-10 21:15:00,39.7,38.1,30.01,North,8,3.0,5.0,94,0.00,,,0.71,Wunderground v.1.15,2013-04-11 01:15:00,
2013-04-10 21:20:00,39.7,38.1,30.02,ESE,104,2.0,2.0,94,0.00,,,0.71,Wunderground v.1.15,2013-04-11 01:20:00,
2013-04-10 21:30:00,39.6,38.0,30.00,NE,48,2.0,2.0,94,0.00,,,0.71,Wunderground v.1.15,2013-04-11 01:30:00,
2013-04-10 21:40:00,39.6,38.0,30.00,NNE,19,2.0,2.0,94,0.00,,,0.71,Wunderground v.1.15,2013-04-11 01:40:00,
2013-04-10 21:50:00,39.6,38.0,30.00,ENE,71,1.0,1.0,94,0.00,,,0.71,Wunderground v.1.15,2013-04-11 01:50:00,
2013-04-10 22:00:00,39.5,37.9,29.99,NE,35,2.0,2.0,94,0.00,,,0.71,Wunderground v.1.15,2013-04-11 02:00:00,
2013-04-10 22:10:00,39.5,37.9,29.99,East,99,2.0,2.0,94,0.00,,,0.71,Wunderground v.1.15,2013-04-11 02:10:00,
2013-04-10 22:20:00,39.5,37.9,29.99,East,94,2.0,2.0,94,0.00,,,0.71,Wunderground v.1.15,2013-04-11 02:20:00,
2013-04-10 22:25:00,39.5,37.9,29.98,NE,53,2.0,2.0,94,0.00,,,0.71,Wunderground v.1.15,2013-04-11 02:25:00,
2013-04-10 22:35:00,39.5,37.9,30.01,ENE,78,2.0,3.0,94,0.00,,,0.71,Wunderground v.1.15,2013-04-11 02:35:00,
2013-04-10 22:45:00,39.6,38.0,30.01,ENE,68,3.0,3.0,94,0.00,,,0.71,Wunderground v.1.15,2013-04-11 02:45:00,
2013-04-10 22:55:00,39.6,38.0,30.02,NE,39,2.0,3.0,94,0.00,,,0.71,Wunderground v.1.15,2013-04-11 02:55:00,
2013-04-10 23:01:00,39.5,37.9,30.02,NE,54,2.0,2.0,94,0.00,,,0.71,Wunderground v.1.15,2013-04-11 03:01:00,
2013-04-10 23:10:00,39.5,37.9,30.03,NNE,23,3.0,3.0,94,0.00,,,0.71,Wunderground v.1.15,2013-04-11 03:10:00,
2013-04-10 23:20:00,39.3,37.7,30.01,North,352,3.0,5.0,94,0.00,,,0.71,Wunderground v.1.15,2013-04-11 03:20:00,
2013-04-10 23:25:00,39.3,37.7,30.00,NNE,13,3.0,5.0,94,0.00,,,0.71,Wunderground v.1.15,2013-04-11 03:25:00,
2013-04-10 23:35:00,39.1,37.5,30.00,ENE,59,3.0,3.0,94,0.00,,,0.71,Wunderground v.1.15,2013-04-11 03:35:00,
2013-04-10 23:45:00,39.0,37.1,29.99,East,98,3.0,3.0,93,0.00,,,0.71,Wunderground v.1.15,2013-04-11 03:45:00,
2013-04-10 23:55:00,39.0,37.1,29.99,East,97,2.0,2.0,93,0.00,,,0.71,Wunderground v.1.15,2013-04-11 03:55:00,